Location: Czernica
(51.0462°N, 17.2458°E)
Time: 02:24:34
(UTC+01:00)

ISS - Pass Details

Date: 27 January 2019
Orbit: 403 x 411 km, 51.6° (Epoch: 20 February)

Event Time Altitude Azimuth Distance (km) Brightness Sun altitude
Rises 18:21:58 0° 245° (WSW) 2,331 1.5 -17.0°
Reaches altitude 10° 18:24:03 10° 242° (WSW) 1,473 0.1 -17.3°
Maximum altitude 18:27:20 64° 160° (SSE) 460 -3.7 -17.9°
Enters shadow 18:27:46 56° 117° (ESE) 497 -3.8 -17.9°
